Location: Lanoux
(43.1180°N, 1.4255°E)
Time: 04:08:42
(UTC+00:00)

Meteor 2-10 - Pass Details

Date: 22 March 2026
Orbit: 736 x 866 km, 81.2° (Epoch: 13 April)

Event Time Altitude Azimuth Distance (km) Brightness Sun altitude
Rises 04:12:14 0° 357° (N) 3,181 7.4 -19.1°
Reaches altitude 10° 04:14:44 10° 6° (N) 2,260 6.7 -18.7°
Maximum altitude 04:19:24 37° 73° (ENE) 1,163 5.6 -17.8°
Drops below altitude 10° 04:24:08 10° 141° (SE) 2,294 6.7 -17.0°
Sets 04:26:41 0° 149° (SSE) 3,235 7.4 -16.6°
